Location: Allos
(44.2333°N, 6.6333°E)
Time: 05:24:04
(UTC+00:00)

CENTAUR R/B - Pass Details

Date: 01 December 2020
Orbit: 750 x 1438 km, 63.4° (Epoch: 11 January)

Event Time Altitude Azimuth Distance (km) Brightness Sun altitude
Rises 19:49:33 0° 245° (WSW) 3,451 6.0 -41.1°
Reaches altitude 10° 19:52:03 10° 253° (WSW) 2,599 5.3 -41.6°
Enters shadow 19:54:58 27° 274° (W) 1,780 4.2 -42.1°
